Flag for Canada Weather past 2 weeks in Prince Albert, Saskatchewan, Canada

43 °F

Light rain. Low clouds.

Feels Like: 37 °F
Forecast: 39 / 45 °F
Wind: 9 mph from North

Location: Prince Albert

Current Time: Oct 3, 2015 at 11:59:16 PM

Latest Report: Oct 3, 2015 at 11:00 PM

Visibility: 6 mi

Pressure: 30.24 "Hg

Humidity: 93%

Dew point: 41 °F

Location of Prince AlbertLocation

Historic Weather in Prince Albert — Graph


Prince Albert temperature yesterday

Maximum temperature yesterday: 64 °F (at 3:00 PM)
Minimum temperature yesterday: 37 °F (at 3:00 AM)
Average temperature yesterday: 52 °F

Past Weeks' High & Low Weather Summary

High75 °F (Sep 25, 4:00 PM)100% (Sep 19, 5:00 AM)30.28 "Hg (Sep 19, 5:00 AM)
Low25 °F (Sep 29, 12:00 AM)32% (Sep 28, 4:00 PM)29.49 "Hg (Sep 21, 2:00 AM)
Average49 °F74%29.98 "Hg
* Reported Sep 18 11:00 PM — Oct 3 11:00 PM, Prince Albert, Weather by CustomWeather, © 2015

Note: Actual official high and low records may vary slightly from our data, if they occured in-between our weather recording intervals... More about our weather records


Prince Albert weather history for previous 24 hours

Time TempWeatherWind HumidityBarometerVisibility
11:00 PM
Sat, Oct 3
43 °FLight rain. Low clouds.9 mph93%30.24 "Hg6 mi
10:00 PM45 °FLight rain. Low clouds.9 mph93%30.24 "Hg8 mi
9:00 PM45 °FLight rain. Low clouds.6 mph100%30.25 "Hg8 mi
8:00 PM46 °FLight rain. Fog.6 mph93%30.24 "Hg4 mi
7:00 PM46 °FLight rain. Fog.5 mph93%30.24 "Hg4 mi
6:00 PM46 °FLight rain. Fog.6 mph93%30.23 "Hg4 mi
5:00 PM46 °FLight rain. Fog.5 mph93%30.23 "Hg4 mi
4:00 PM48 °FLight rain. Fog.3 mph94%30.22 "Hg6 mi
3:00 PM48 °FLight rain. Fog.7 mph94%30.21 "Hg6 mi
2:00 PM48 °FLight rain. Overcast.6 mph94%30.21 "Hg8 mi
1:00 PM46 °FMore clouds than sun.6 mph93%30.21 "Hg8 mi
12:00 PM46 °FLight rain. Fog.7 mph93%30.22 "Hg3 mi
11:00 AM46 °FLight rain. Fog.6 mph93%30.22 "Hg5 mi
10:00 AM46 °FLight rain. Fog.6 mph93%30.22 "Hg5 mi
9:00 AM46 °FLight rain. Fog.5 mph93%30.22 "Hg3 mi
8:56 AM46 °FLight rain. Fog.6 mph93%30.22 "Hg3 mi
8:00 AM46 °FLight rain. Fog.5 mph93%30.21 "Hg4 mi
7:00 AM46 °FOvercast.9 mph87%30.20 "Hg12 mi
6:00 AM48 °FSprinkles. Overcast.7 mph87%30.18 "Hg15 mi
5:00 AM48 °FSprinkles. Overcast.8 mph87%30.17 "Hg12 mi
4:00 AM50 °FSprinkles. Overcast.10 mph82%30.17 "Hg15 mi
3:00 AM52 °FOvercast.12 mph77%30.16 "Hg15 mi
2:00 AM52 °FMostly cloudy.13 mph77%30.16 "Hg15 mi
1:00 AM54 °FMostly cloudy.13 mph72%30.16 "Hg15 mi
12:00 AM55 °FMostly cloudy.12 mph67%30.15 "Hg15 mi
11:00 PM
Fri, Oct 2
54 °FOvercast.5 mph77%30.14 "Hg15 mi
Weather by CustomWeather, © 2015

See weather overviewHow to use our weather pages